Wetterdaten: Freitag, 08.12.2017
Datum Zeit Temp. Auen Feucht Auen Luftdruck Regen Richtung Richtung Windben
08.12.2017 00:00 -3,6 C 95 % 1018,4 hPa 0,0 mm W 261 3,2 km/h (1 Bft)
08.12.2017 00:05 -3,7 C 95 % 1018,3 hPa 0,0 mm W 261 3,2 km/h (1 Bft)
08.12.2017 00:10 -3,7 C 95 % 1018,1 hPa 0,0 mm W 261 4,8 km/h (1 Bft)
08.12.2017 00:15 -3,4 C 95 % 1018,1 hPa 0,0 mm W 261 4,8 km/h (1 Bft)
08.12.2017 00:20 -3,4 C 95 % 1018,0 hPa 0,0 mm W 261 3,2 km/h (1 Bft)
08.12.2017 00:25 -3,8 C 95 % 1017,7 hPa 0,0 mm W 261 1,6 km/h (1 Bft)
08.12.2017 00:30 -3,7 C 95 % 1017,5 hPa 0,0 mm W 261 3,2 km/h (1 Bft)
08.12.2017 00:35 -3,6 C 95 % 1017,3 hPa 0,0 mm W 261 4,8 km/h (1 Bft)
08.12.2017 00:40 -3,7 C 95 % 1017,3 hPa 0,0 mm W 261 4,8 km/h (1 Bft)
08.12.2017 00:45 -3,6 C 95 % 1017,2 hPa 0,0 mm W 261 1,6 km/h (1 Bft)
08.12.2017 00:50 -3,7 C 95 % 1016,9 hPa 0,0 mm W 261 1,6 km/h (1 Bft)
08.12.2017 00:55 -3,8 C 95 % 1016,8 hPa 0,0 mm W 261 1,6 km/h (1 Bft)
08.12.2017 01:00 -3,9 C 95 % 1016,5 hPa 0,0 mm W 261 4,8 km/h (1 Bft)
08.12.2017 01:05 -4,0 C 95 % 1016,5 hPa 0,0 mm W 261 4,8 km/h (1 Bft)
08.12.2017 01:10 -4,1 C 95 % 1016,5 hPa 0,0 mm W 261 3,2 km/h (1 Bft)
08.12.2017 01:15 -4,2 C 95 % 1016,4 hPa 0,0 mm W 261 3,2 km/h (1 Bft)
08.12.2017 01:20 -4,1 C 95 % 1016,2 hPa 0,0 mm W 261 3,2 km/h (1 Bft)
08.12.2017 01:25 -4,1 C 95 % 1016,2 hPa 0,0 mm W 261 4,8 km/h (1 Bft)
08.12.2017 01:30 -4,2 C 95 % 1015,8 hPa 0,0 mm W 261 4,8 km/h (1 Bft)
08.12.2017 01:35 -4,2 C 95 % 1015,8 hPa 0,0 mm W 261 4,8 km/h (1 Bft)
08.12.2017 01:40 -4,3 C 95 % 1015,8 hPa 0,0 mm W 261 1,6 km/h (1 Bft)
08.12.2017 01:45 -4,3 C 95 % 1015,8 hPa 0,0 mm W 261 4,8 km/h (1 Bft)
08.12.2017 01:50 -4,3 C 95 % 1015,9 hPa 0,0 mm W 261 3,2 km/h (1 Bft)
08.12.2017 01:55 -4,3 C 95 % 1015,8 hPa 0,0 mm W 261 4,8 km/h (1 Bft)
08.12.2017 02:00 -4,2 C 95 % 1015,6 hPa 0,0 mm W 261 3,2 km/h (1 Bft)
08.12.2017 02:05 -4,4 C 95 % 1015,6 hPa 0,0 mm W 261 3,2 km/h (1 Bft)
08.12.2017 02:10 -4,3 C 95 % 1015,5 hPa 0,0 mm W 261 3,2 km/h (1 Bft)
08.12.2017 02:15 -4,2 C 95 % 1015,6 hPa 0,0 mm W 261 4,8 km/h (1 Bft)
08.12.2017 02:20 -4,2 C 95 % 1015,4 hPa 0,0 mm W 261 3,2 km/h (1 Bft)
08.12.2017 02:25 -4,2 C 95 % 1015,3 hPa 0,0 mm W 261 3,2 km/h (1 Bft)
08.12.2017 02:30 -4,2 C 95 % 1015,4 hPa 0,0 mm W 261 3,2 km/h (1 Bft)
08.12.2017 02:35 -4,3 C 95 % 1015,3 hPa 0,0 mm W 261 4,8 km/h (1 Bft)
08.12.2017 02:40 -4,2 C 95 % 1015,3 hPa 0,0 mm W 261 4,8 km/h (1 Bft)
08.12.2017 02:45 -4,3 C 95 % 1015,1 hPa 0,0 mm W 261 4,8 km/h (1 Bft)
08.12.2017 02:50 -4,4 C 95 % 1015,0 hPa 0,0 mm W 261 4,8 km/h (1 Bft)
08.12.2017 02:55 -4,6 C 95 % 1015,0 hPa 0,0 mm W 261 4,8 km/h (1 Bft)
08.12.2017 03:00 -4,3 C 95 % 1015,0 hPa 0,0 mm W 271 6,4 km/h (2 Bft)
08.12.2017 03:05 -4,2 C 95 % 1014,9 hPa 0,0 mm W 271 4,8 km/h (1 Bft)
08.12.2017 03:10 -4,0 C 95 % 1014,6 hPa 0,0 mm W 271 6,4 km/h (2 Bft)
08.12.2017 03:15 -3,9 C 95 % 1014,6 hPa 0,0 mm N-NW 343 4,8 km/h (1 Bft)
08.12.2017 03:20 -3,8 C 95 % 1014,6 hPa 0,0 mm N-NW 343 3,2 km/h (1 Bft)
08.12.2017 03:25 -3,7 C 95 % 1014,5 hPa 0,0 mm W-NW 290 6,4 km/h (2 Bft)
08.12.2017 03:30 -3,6 C 95 % 1014,6 hPa 0,0 mm W 273 6,4 km/h (2 Bft)
08.12.2017 03:35 -3,5 C 95 % 1014,6 hPa 0,0 mm W 273 3,2 km/h (1 Bft)
08.12.2017 03:40 -3,3 C 96 % 1014,5 hPa 0,0 mm W 273 4,8 km/h (1 Bft)
08.12.2017 03:45 -3,2 C 95 % 1014,5 hPa 0,0 mm W 273 1,6 km/h (1 Bft)
08.12.2017 03:50 -3,2 C 95 % 1014,4 hPa 0,0 mm W 273 1,6 km/h (1 Bft)
08.12.2017 03:55 -3,2 C 95 % 1014,3 hPa 0,0 mm W 273 3,2 km/h (1 Bft)
08.12.2017 04:00 -3,2 C 95 % 1014,2 hPa 0,0 mm W 273 1,6 km/h (1 Bft)
08.12.2017 04:05 -3,2 C 95 % 1014,3 hPa 0,0 mm W 273 4,8 km/h (1 Bft)
08.12.2017 04:10 -3,3 C 95 % 1014,2 hPa 0,0 mm W 273 3,2 km/h (1 Bft)
08.12.2017 04:15 -3,2 C 95 % 1014,2 hPa 0,0 mm W 273 4,8 km/h (1 Bft)
08.12.2017 04:20 -3,2 C 95 % 1014,3 hPa 0,0 mm W 273 4,8 km/h (1 Bft)
08.12.2017 04:25 -3,2 C 95 % 1014,3 hPa 0,0 mm W 273 6,4 km/h (2 Bft)
08.12.2017 04:30 -3,0 C 95 % 1014,5 hPa 0,0 mm W 273 6,4 km/h (2 Bft)
08.12.2017 04:35 -2,9 C 95 % 1015,1 hPa 0,0 mm W 267 12,9 km/h (3 Bft)
08.12.2017 04:40 -2,4 C 96 % 1015,0 hPa 0,0 mm W-NW 286 8,0 km/h (2 Bft)
08.12.2017 04:45 -1,9 C 96 % 1014,5 hPa 0,0 mm N-NW 339 4,8 km/h (1 Bft)
08.12.2017 04:50 -1,8 C 96 % 1014,4 hPa 0,0 mm N-NW 338 4,8 km/h (1 Bft)
08.12.2017 04:55 -1,8 C 95 % 1015,0 hPa 0,0 mm W 266 9,7 km/h (2 Bft)
08.12.2017 05:00 -1,6 C 95 % 1014,8 hPa 0,0 mm W 271 9,7 km/h (2 Bft)
08.12.2017 05:05 -1,4 C 95 % 1014,7 hPa 0,0 mm W 274 8,0 km/h (2 Bft)
08.12.2017 05:10 -1,3 C 95 % 1014,6 hPa 0,0 mm W 274 6,4 km/h (2 Bft)
08.12.2017 05:15 -1,1 C 95 % 1014,7 hPa 0,0 mm W 274 4,8 km/h (1 Bft)
08.12.2017 05:20 -1,1 C 95 % 1014,6 hPa 0,0 mm W 274 6,4 km/h (2 Bft)
08.12.2017 05:25 -1,0 C 95 % 1014,4 hPa 0,0 mm W 273 4,8 km/h (1 Bft)
08.12.2017 05:30 -0,8 C 95 % 1014,2 hPa 0,0 mm W 273 1,6 km/h (1 Bft)
08.12.2017 05:35 -0,8 C 95 % 1013,9 hPa 0,0 mm W 273 3,2 km/h (1 Bft)
08.12.2017 05:40 -0,8 C 94 % 1013,7 hPa 0,0 mm W 273 4,8 km/h (1 Bft)
08.12.2017 05:45 -0,8 C 94 % 1014,0 hPa 0,0 mm W 273 4,8 km/h (1 Bft)
08.12.2017 05:50 -0,8 C 94 % 1013,9 hPa 0,0 mm W 273 1,6 km/h (1 Bft)
08.12.2017 05:55 -0,8 C 94 % 1014,1 hPa 0,0 mm W 273 1,6 km/h (1 Bft)
08.12.2017 06:00 -0,8 C 94 % 1014,0 hPa 0,0 mm W 273 0,0 km/h (0 Bft)
08.12.2017 06:05 -0,8 C 94 % 1014,0 hPa 0,0 mm W 273 0,0 km/h (0 Bft)
08.12.2017 06:10 -0,9 C 94 % 1014,0 hPa 0,0 mm W 273 0,0 km/h (0 Bft)
08.12.2017 06:15 -0,8 C 94 % 1014,2 hPa 0,0 mm W 273 3,2 km/h (1 Bft)
08.12.2017 06:20 -0,8 C 94 % 1014,2 hPa 0,0 mm W 273 1,6 km/h (1 Bft)
08.12.2017 06:25 -0,7 C 94 % 1014,2 hPa 0,0 mm W 273 0,0 km/h (0 Bft)
08.12.2017 06:30 -0,7 C 94 % 1014,1 hPa 0,0 mm W 273 0,0 km/h (0 Bft)
08.12.2017 06:35 -0,8 C 94 % 1013,9 hPa 0,0 mm W 273 0,0 km/h (0 Bft)
08.12.2017 06:40 -0,8 C 94 % 1014,0 hPa 0,0 mm W 273 0,0 km/h (0 Bft)
08.12.2017 06:45 -0,7 C 94 % 1014,1 hPa 0,0 mm W 273 0,0 km/h (0 Bft)
08.12.2017 06:50 -0,7 C 94 % 1014,2 hPa 0,0 mm W 273 0,0 km/h (0 Bft)
08.12.2017 06:55 -0,7 C 94 % 1014,2 hPa 0,0 mm W 273 0,0 km/h (0 Bft)
08.12.2017 07:00 -0,7 C 94 % 1014,2 hPa 0,0 mm W 273 0,0 km/h (0 Bft)
08.12.2017 07:05 -0,7 C 94 % 1014,2 hPa 0,0 mm W 273 0,0 km/h (0 Bft)
08.12.2017 07:10 -0,7 C 94 % 1014,2 hPa 0,0 mm W 273 0,0 km/h (0 Bft)
08.12.2017 07:15 -0,7 C 94 % 1014,4 hPa 0,0 mm W 273 0,0 km/h (0 Bft)
08.12.2017 07:20 -0,7 C 94 % 1014,4 hPa 0,0 mm W 273 3,2 km/h (1 Bft)
08.12.2017 07:25 -0,7 C 94 % 1014,3 hPa 0,0 mm W 273 0,0 km/h (0 Bft)
08.12.2017 07:30 -0,6 C 95 % 1014,3 hPa 0,0 mm W 273 3,2 km/h (1 Bft)
08.12.2017 07:35 -0,6 C 95 % 1014,3 hPa 0,0 mm W 273 1,6 km/h (1 Bft)
08.12.2017 07:40 -0,6 C 95 % 1014,4 hPa 0,0 mm W 273 3,2 km/h (1 Bft)
08.12.2017 07:45 -0,6 C 95 % 1014,5 hPa 0,0 mm W 273 4,8 km/h (1 Bft)
08.12.2017 07:50 -0,6 C 95 % 1014,4 hPa 0,0 mm W 273 4,8 km/h (1 Bft)
08.12.2017 07:55 -0,6 C 94 % 1014,4 hPa 0,0 mm W 273 1,6 km/h (1 Bft)
08.12.2017 08:00 -0,6 C 95 % 1014,4 hPa 0,0 mm W 273 0,0 km/h (0 Bft)
08.12.2017 08:05 -0,5 C 95 % 1014,5 hPa 0,0 mm W 273 1,6 km/h (1 Bft)
08.12.2017 08:10 -0,4 C 94 % 1014,6 hPa 0,0 mm W 273 1,6 km/h (1 Bft)
08.12.2017 08:15 -0,4 C 94 % 1014,5 hPa 0,0 mm W 273 1,6 km/h (1 Bft)
08.12.2017 08:20 -0,4 C 94 % 1014,5 hPa 0,0 mm W 273 3,2 km/h (1 Bft)
08.12.2017 08:25 -0,3 C 95 % 1014,4 hPa 0,0 mm W 273 0,0 km/h (0 Bft)
08.12.2017 08:30 -0,3 C 95 % 1014,4 hPa 0,0 mm W 273 0,0 km/h (0 Bft)
08.12.2017 08:35 -0,2 C 95 % 1014,4 hPa 0,0 mm W 273 3,2 km/h (1 Bft)
08.12.2017 08:40 -0,1 C 95 % 1014,4 hPa 0,0 mm W 273 0,0 km/h (0 Bft)
08.12.2017 08:45 0,1 C 95 % 1014,3 hPa 0,0 mm W 273 0,0 km/h (0 Bft)
08.12.2017 08:50 0,0 C 94 % 1014,4 hPa 0,0 mm W 273 0,0 km/h (0 Bft)
08.12.2017 08:55 0,0 C 95 % 1014,4 hPa 0,0 mm W 273 0,0 km/h (0 Bft)
08.12.2017 09:00 0,1 C 95 % 1014,3 hPa 0,0 mm W 273 0,0 km/h (0 Bft)
08.12.2017 09:05 0,2 C 95 % 1014,2 hPa 0,0 mm W 273 0,0 km/h (0 Bft)
08.12.2017 09:10 0,2 C 95 % 1014,2 hPa 0,0 mm W 273 0,0 km/h (0 Bft)
08.12.2017 09:15 0,3 C 95 % 1014,1 hPa 0,0 mm W 273 3,2 km/h (1 Bft)
08.12.2017 09:20 0,3 C 95 % 1014,0 hPa 0,0 mm W 273 4,8 km/h (1 Bft)
08.12.2017 09:25 0,4 C 95 % 1013,9 hPa 0,0 mm W 273 3,2 km/h (1 Bft)
08.12.2017 09:30 0,5 C 95 % 1014,0 hPa 0,0 mm W 273 0,0 km/h (0 Bft)
08.12.2017 09:35 0,7 C 95 % 1014,2 hPa 0,0 mm W 273 0,0 km/h (0 Bft)
08.12.2017 09:40 0,8 C 95 % 1014,1 hPa 0,0 mm W 273 0,0 km/h (0 Bft)
08.12.2017 09:45 0,8 C 94 % 1014,1 hPa 0,0 mm W 273 0,0 km/h (0 Bft)
08.12.2017 09:50 0,8 C 94 % 1013,9 hPa 0,0 mm W 273 0,0 km/h (0 Bft)
08.12.2017 09:55 0,8 C 94 % 1013,8 hPa 0,0 mm W 273 0,0 km/h (0 Bft)
08.12.2017 10:00 0,8 C 94 % 1013,7 hPa 0,0 mm W 273 0,0 km/h (0 Bft)
08.12.2017 10:05 0,9 C 95 % 1013,6 hPa 0,0 mm W 273 4,8 km/h (1 Bft)
08.12.2017 10:10 0,9 C 94 % 1013,7 hPa 0,0 mm W 273 1,6 km/h (1 Bft)
08.12.2017 10:15 1,0 C 94 % 1013,7 hPa 0,0 mm W 273 3,2 km/h (1 Bft)
08.12.2017 10:20 1,1 C 94 % 1013,6 hPa 0,0 mm W 273 4,8 km/h (1 Bft)
08.12.2017 10:25 1,2 C 94 % 1013,5 hPa 0,0 mm W 273 0,0 km/h (0 Bft)
08.12.2017 10:30 1,3 C 94 % 1013,5 hPa 0,0 mm W 273 0,0 km/h (0 Bft)
08.12.2017 10:35 1,2 C 94 % 1013,4 hPa 0,0 mm W 273 4,8 km/h (1 Bft)
08.12.2017 10:40 1,1 C 94 % 1013,3 hPa 0,0 mm W 273 4,8 km/h (1 Bft)
08.12.2017 10:45 1,1 C 94 % 1013,3 hPa 0,0 mm W 273 3,2 km/h (1 Bft)
08.12.2017 10:50 1,1 C 94 % 1013,5 hPa 0,0 mm W 273 3,2 km/h (1 Bft)
08.12.2017 10:55 1,1 C 94 % 1013,5 hPa 0,0 mm W 273 0,0 km/h (0 Bft)
08.12.2017 11:00 1,2 C 94 % 1013,5 hPa 0,0 mm W 273 0,0 km/h (0 Bft)
08.12.2017 11:05 1,3 C 94 % 1013,3 hPa 0,0 mm W 273 0,0 km/h (0 Bft)
08.12.2017 11:10 1,4 C 94 % 1013,3 hPa 0,0 mm W 273 3,2 km/h (1 Bft)
08.12.2017 11:15 1,6 C 94 % 1013,3 hPa 0,0 mm W 273 3,2 km/h (1 Bft)
08.12.2017 11:20 1,7 C 94 % 1013,3 hPa 0,0 mm W 273 1,6 km/h (1 Bft)
08.12.2017 11:25 1,8 C 94 % 1013,3 hPa 0,0 mm W 273 3,2 km/h (1 Bft)
08.12.2017 11:30 1,9 C 94 % 1013,2 hPa 0,0 mm W 273 3,2 km/h (1 Bft)
08.12.2017 11:35 1,9 C 94 % 1013,1 hPa 0,0 mm W 273 4,8 km/h (1 Bft)
08.12.2017 11:40 1,9 C 93 % 1013,2 hPa 0,0 mm W 273 4,8 km/h (1 Bft)
08.12.2017 11:45 1,9 C 93 % 1013,1 hPa 0,0 mm W 273 4,8 km/h (1 Bft)
08.12.2017 11:50 1,9 C 93 % 1013,1 hPa 0,0 mm W 273 4,8 km/h (1 Bft)
08.12.2017 11:55 1,8 C 93 % 1013,1 hPa 0,0 mm W 273 4,8 km/h (1 Bft)
08.12.2017 12:00 1,8 C 93 % 1013,1 hPa 0,0 mm W 273 4,8 km/h (1 Bft)
08.12.2017 12:05 1,8 C 93 % 1013,1 hPa 0,0 mm W 273 4,8 km/h (1 Bft)
08.12.2017 12:10 1,8 C 93 % 1013,0 hPa 0,2 mm W 273 4,8 km/h (1 Bft)
08.12.2017 12:15 1,8 C 93 % 1013,1 hPa 0,0 mm W 273 3,2 km/h (1 Bft)
08.12.2017 12:20 1,8 C 94 % 1013,0 hPa 0,0 mm W 273 3,2 km/h (1 Bft)
08.12.2017 12:25 1,9 C 94 % 1012,7 hPa 0,0 mm W 273 1,6 km/h (1 Bft)
08.12.2017 12:30 1,9 C 94 % 1012,5 hPa 0,0 mm W 273 0,0 km/h (0 Bft)
08.12.2017 12:35 1,9 C 94 % 1012,6 hPa 0,0 mm W 273 1,6 km/h (1 Bft)
08.12.2017 12:40 1,9 C 94 % 1012,4 hPa 0,2 mm W 273 3,2 km/h (1 Bft)
08.12.2017 12:45 1,9 C 95 % 1012,4 hPa 0,0 mm W 273 1,6 km/h (1 Bft)
08.12.2017 12:50 2,0 C 95 % 1012,3 hPa 0,0 mm W 273 0,0 km/h (0 Bft)
08.12.2017 12:55 2,1 C 95 % 1012,2 hPa 0,2 mm W 273 0,0 km/h (0 Bft)
08.12.2017 13:00 2,2 C 95 % 1012,3 hPa 0,0 mm W 273 0,0 km/h (0 Bft)
08.12.2017 13:05 2,2 C 95 % 1012,3 hPa 0,0 mm W 273 0,0 km/h (0 Bft)
08.12.2017 13:10 2,2 C 95 % 1012,2 hPa 0,0 mm W 273 0,0 km/h (0 Bft)
08.12.2017 13:15 2,2 C 95 % 1012,1 hPa 0,0 mm W 273 0,0 km/h (0 Bft)
08.12.2017 13:20 2,1 C 95 % 1012,2 hPa 0,2 mm W 273 0,0 km/h (0 Bft)
08.12.2017 13:25 2,2 C 95 % 1012,2 hPa 0,0 mm W 273 0,0 km/h (0 Bft)
08.12.2017 13:30 2,0 C 95 % 1012,2 hPa 0,0 mm W 273 4,8 km/h (1 Bft)
08.12.2017 13:35 2,1 C 95 % 1012,3 hPa 0,0 mm W 273 4,8 km/h (1 Bft)
08.12.2017 13:40 2,4 C 95 % 1012,4 hPa 0,2 mm W 265 16,1 km/h (3 Bft)
08.12.2017 13:45 2,6 C 95 % 1012,5 hPa 0,2 mm W 268 22,5 km/h (4 Bft)
08.12.2017 13:50 2,6 C 95 % 1012,7 hPa 0,0 mm W 269 20,9 km/h (4 Bft)
08.12.2017 13:55 2,4 C 95 % 1012,9 hPa 0,2 mm W 259 22,5 km/h (4 Bft)
08.12.2017 14:00 2,3 C 95 % 1013,2 hPa 0,2 mm W 262 24,1 km/h (4 Bft)
08.12.2017 14:05 2,1 C 95 % 1013,4 hPa 0,2 mm W 270 19,3 km/h (3 Bft)
08.12.2017 14:10 1,9 C 95 % 1013,6 hPa 0,0 mm W 275 20,9 km/h (4 Bft)
08.12.2017 14:15 1,8 C 95 % 1013,6 hPa 0,2 mm W 261 17,7 km/h (3 Bft)
08.12.2017 14:20 1,6 C 95 % 1013,8 hPa 0,2 mm W-SW 252 25,7 km/h (4 Bft)
08.12.2017 14:25 1,4 C 95 % 1013,8 hPa 0,2 mm W 271 12,9 km/h (3 Bft)
08.12.2017 14:30 1,3 C 95 % 1013,9 hPa 0,2 mm W 260 11,3 km/h (2 Bft)
08.12.2017 14:35 1,2 C 95 % 1013,9 hPa 0,0 mm W 271 11,3 km/h (2 Bft)
08.12.2017 14:40 1,2 C 95 % 1014,0 hPa 0,2 mm W-SW 253 14,5 km/h (3 Bft)
08.12.2017 14:45 1,1 C 95 % 1014,0 hPa 0,0 mm W-SW 257 14,5 km/h (3 Bft)
08.12.2017 14:50 1,1 C 95 % 1014,1 hPa 0,2 mm W 273 14,5 km/h (3 Bft)
08.12.2017 14:55 0,9 C 95 % 1014,3 hPa 0,2 mm W 266 8,0 km/h (2 Bft)
08.12.2017 15:00 0,9 C 95 % 1014,3 hPa 0,2 mm W 270 9,7 km/h (2 Bft)
08.12.2017 15:05 0,9 C 95 % 1014,4 hPa 0,0 mm W-NW 284 9,7 km/h (2 Bft)
08.12.2017 15:10 0,9 C 95 % 1014,4 hPa 0,0 mm W-SW 255 9,7 km/h (2 Bft)
08.12.2017 15:15 1,0 C 95 % 1014,4 hPa 0,2 mm W 269 12,9 km/h (3 Bft)
08.12.2017 15:20 1,0 C 95 % 1014,7 hPa 0,0 mm W 267 9,7 km/h (2 Bft)
08.12.2017 15:25 1,0 C 95 % 1014,7 hPa 0,0 mm W-SW 251 9,7 km/h (2 Bft)
08.12.2017 15:30 1,0 C 95 % 1014,7 hPa 0,0 mm W 263 12,9 km/h (3 Bft)
08.12.2017 15:35 1,1 C 95 % 1014,6 hPa 0,0 mm W 272 12,9 km/h (3 Bft)
08.12.2017 15:40 1,0 C 95 % 1014,7 hPa 0,0 mm W 260 11,3 km/h (2 Bft)
08.12.2017 15:45 1,0 C 95 % 1014,6 hPa 0,0 mm W 267 9,7 km/h (2 Bft)
08.12.2017 15:50 1,0 C 95 % 1014,6 hPa 0,0 mm W 267 11,3 km/h (2 Bft)
08.12.2017 15:55 1,0 C 95 % 1014,5 hPa 0,0 mm W-SW 255 8,0 km/h (2 Bft)
08.12.2017 16:00 1,0 C 95 % 1014,6 hPa 0,0 mm W-NW 286 11,3 km/h (2 Bft)
08.12.2017 16:05 1,1 C 95 % 1014,6 hPa 0,0 mm W 279 8,0 km/h (2 Bft)
08.12.2017 16:10 1,1 C 95 % 1014,6 hPa 0,0 mm W 276 6,4 km/h (2 Bft)
08.12.2017 16:15 1,1 C 95 % 1014,5 hPa 0,0 mm W 276 3,2 km/h (1 Bft)
08.12.2017 16:20 1,0 C 95 % 1014,6 hPa 0,0 mm W 276 3,2 km/h (1 Bft)
08.12.2017 16:25 1,0 C 95 % 1014,6 hPa 0,0 mm W 276 1,6 km/h (1 Bft)
08.12.2017 16:30 1,0 C 95 % 1014,6 hPa 0,0 mm W 276 3,2 km/h (1 Bft)
08.12.2017 16:35 1,0 C 95 % 1014,6 hPa 0,0 mm W 276 3,2 km/h (1 Bft)
08.12.2017 16:40 1,0 C 95 % 1014,6 hPa 0,0 mm W 276 3,2 km/h (1 Bft)
08.12.2017 16:45 0,9 C 95 % 1014,6 hPa 0,0 mm W 276 3,2 km/h (1 Bft)
08.12.2017 16:50 0,9 C 95 % 1014,6 hPa 0,0 mm W 276 4,8 km/h (1 Bft)
08.12.2017 16:55 0,9 C 95 % 1014,7 hPa 0,0 mm W 276 4,8 km/h (1 Bft)
08.12.2017 17:00 0,9 C 95 % 1014,6 hPa 0,2 mm W 264 8,0 km/h (2 Bft)
08.12.2017 17:05 0,8 C 95 % 1014,5 hPa 0,0 mm W 262 6,4 km/h (2 Bft)
08.12.2017 17:10 0,8 C 95 % 1014,6 hPa 0,2 mm W 263 4,8 km/h (1 Bft)
08.12.2017 17:15 0,8 C 95 % 1014,6 hPa 0,2 mm W 267 4,8 km/h (1 Bft)
08.12.2017 17:20 0,8 C 95 % 1014,5 hPa 0,0 mm W 267 4,8 km/h (1 Bft)
08.12.2017 17:25 0,8 C 95 % 1014,4 hPa 0,0 mm W 267 0,0 km/h (0 Bft)
08.12.2017 17:30 0,8 C 95 % 1014,5 hPa 0,0 mm W 267 0,0 km/h (0 Bft)
08.12.2017 17:35 0,8 C 95 % 1014,4 hPa 0,0 mm W 267 0,0 km/h (0 Bft)
08.12.2017 17:40 0,8 C 95 % 1014,3 hPa 0,0 mm W 267 0,0 km/h (0 Bft)
08.12.2017 17:45 0,8 C 95 % 1014,3 hPa 0,0 mm W 267 0,0 km/h (0 Bft)
08.12.2017 17:50 0,8 C 95 % 1014,3 hPa 0,0 mm W 267 0,0 km/h (0 Bft)
08.12.2017 17:55 0,8 C 95 % 1014,3 hPa 0,2 mm W 267 4,8 km/h (1 Bft)
08.12.2017 18:00 0,8 C 95 % 1014,3 hPa 0,0 mm W 267 3,2 km/h (1 Bft)
08.12.2017 18:05 0,8 C 96 % 1014,3 hPa 0,0 mm W 267 3,2 km/h (1 Bft)
08.12.2017 18:10 0,8 C 96 % 1014,3 hPa 0,0 mm W 267 3,2 km/h (1 Bft)
08.12.2017 18:15 0,7 C 96 % 1014,3 hPa 0,0 mm W 267 3,2 km/h (1 Bft)
08.12.2017 18:20 0,8 C 96 % 1014,3 hPa 0,0 mm W 267 6,4 km/h (2 Bft)
08.12.2017 18:25 0,8 C 96 % 1014,3 hPa 0,2 mm W 267 4,8 km/h (1 Bft)
08.12.2017 18:30 0,8 C 96 % 1014,5 hPa 0,0 mm W-SW 243 12,9 km/h (3 Bft)
08.12.2017 18:35 0,8 C 95 % 1014,4 hPa 0,0 mm W 264 19,3 km/h (3 Bft)
08.12.2017 18:40 0,8 C 95 % 1014,7 hPa 0,0 mm W 262 16,1 km/h (3 Bft)
08.12.2017 18:45 0,8 C 95 % 1014,8 hPa 0,0 mm W-SW 257 27,4 km/h (4 Bft)
08.12.2017 18:50 0,7 C 96 % 1014,8 hPa 0,2 mm W-SW 253 27,4 km/h (4 Bft)
08.12.2017 18:55 0,6 C 95 % 1015,0 hPa 0,2 mm W-SW 252 27,4 km/h (4 Bft)
08.12.2017 19:00 0,6 C 95 % 1015,2 hPa 0,0 mm W 275 20,9 km/h (4 Bft)
08.12.2017 19:05 0,6 C 95 % 1015,3 hPa 0,0 mm W-SW 250 19,3 km/h (3 Bft)
08.12.2017 19:10 0,5 C 95 % 1015,3 hPa 0,0 mm W 267 19,3 km/h (3 Bft)
08.12.2017 19:15 0,4 C 95 % 1015,4 hPa 0,2 mm W-NW 282 14,5 km/h (3 Bft)
08.12.2017 19:20 0,4 C 96 % 1015,4 hPa 0,0 mm W 278 22,5 km/h (4 Bft)
08.12.2017 19:25 0,4 C 96 % 1015,4 hPa 0,0 mm W 260 16,1 km/h (3 Bft)
08.12.2017 19:30 0,3 C 96 % 1015,6 hPa 0,0 mm W 276 17,7 km/h (3 Bft)
08.12.2017 19:35 0,3 C 96 % 1015,6 hPa 0,0 mm W 266 11,3 km/h (2 Bft)
08.12.2017 19:40 0,2 C 95 % 1015,6 hPa 0,2 mm W 265 11,3 km/h (2 Bft)
08.12.2017 19:45 0,2 C 95 % 1015,6 hPa 0,0 mm W 273 9,7 km/h (2 Bft)
08.12.2017 19:50 0,2 C 95 % 1015,5 hPa 0,0 mm W 268 12,9 km/h (3 Bft)
08.12.2017 19:55 0,2 C 95 % 1015,5 hPa 0,0 mm W 262 9,7 km/h (2 Bft)
08.12.2017 20:00 0,2 C 95 % 1015,5 hPa 0,0 mm W 271 11,3 km/h (2 Bft)
08.12.2017 20:05 0,1 C 95 % 1015,5 hPa 0,0 mm W-NW 297 12,9 km/h (3 Bft)
08.12.2017 20:10 0,1 C 95 % 1015,5 hPa 0,0 mm W 273 12,9 km/h (3 Bft)
08.12.2017 20:15 0,1 C 95 % 1015,6 hPa 0,0 mm W-SW 256 9,7 km/h (2 Bft)
08.12.2017 20:20 0,1 C 95 % 1015,5 hPa 0,0 mm W 263 6,4 km/h (2 Bft)
08.12.2017 20:25 0,1 C 95 % 1015,5 hPa 0,0 mm W 263 6,4 km/h (2 Bft)
08.12.2017 20:30 0,2 C 95 % 1015,5 hPa 0,0 mm W 263 6,4 km/h (2 Bft)
08.12.2017 20:35 0,2 C 95 % 1015,4 hPa 0,0 mm W 266 8,0 km/h (2 Bft)
08.12.2017 20:40 0,1 C 95 % 1015,3 hPa 0,0 mm W-SW 250 8,0 km/h (2 Bft)
08.12.2017 20:45 0,2 C 95 % 1015,2 hPa 0,0 mm W-SW 250 4,8 km/h (1 Bft)
08.12.2017 20:50 0,1 C 95 % 1015,2 hPa 0,0 mm W-SW 250 3,2 km/h (1 Bft)
08.12.2017 20:55 0,1 C 95 % 1015,2 hPa 0,0 mm W-SW 250 3,2 km/h (1 Bft)
08.12.2017 21:00 0,1 C 95 % 1015,2 hPa 0,0 mm W-SW 250 4,8 km/h (1 Bft)
08.12.2017 21:05 0,1 C 95 % 1015,1 hPa 0,0 mm W-SW 250 3,2 km/h (1 Bft)
08.12.2017 21:10 0,1 C 95 % 1015,0 hPa 0,0 mm W-SW 250 1,6 km/h (1 Bft)
08.12.2017 21:15 0,1 C 95 % 1015,1 hPa 0,0 mm W-SW 258 4,8 km/h (1 Bft)
08.12.2017 21:20 0,1 C 95 % 1015,1 hPa 0,0 mm W 273 4,8 km/h (1 Bft)
08.12.2017 21:25 0,1 C 95 % 1015,1 hPa 0,0 mm W 275 11,3 km/h (2 Bft)
08.12.2017 21:30 0,2 C 95 % 1015,1 hPa 0,0 mm W-SW 252 11,3 km/h (2 Bft)
08.12.2017 21:35 0,2 C 95 % 1015,0 hPa 0,0 mm W 269 6,4 km/h (2 Bft)
08.12.2017 21:40 0,2 C 95 % 1014,9 hPa 0,0 mm W-NW 284 4,8 km/h (1 Bft)
08.12.2017 21:45 0,1 C 95 % 1014,9 hPa 0,0 mm W-NW 286 4,8 km/h (1 Bft)
08.12.2017 21:50 0,1 C 95 % 1014,8 hPa 0,0 mm W-NW 286 3,2 km/h (1 Bft)
08.12.2017 21:55 0,1 C 95 % 1014,8 hPa 0,0 mm W 266 6,4 km/h (2 Bft)
08.12.2017 22:00 0,1 C 95 % 1014,6 hPa 0,0 mm W 267 4,8 km/h (1 Bft)
08.12.2017 22:05 0,1 C 95 % 1014,5 hPa 0,0 mm W-NW 286 4,8 km/h (1 Bft)
08.12.2017 22:10 0,1 C 95 % 1014,6 hPa 0,0 mm W 267 6,4 km/h (2 Bft)
08.12.2017 22:15 0,1 C 95 % 1014,6 hPa 0,0 mm W 274 6,4 km/h (2 Bft)
08.12.2017 22:20 0,1 C 95 % 1014,6 hPa 0,0 mm W 262 8,0 km/h (2 Bft)
08.12.2017 22:25 0,1 C 95 % 1014,5 hPa 0,0 mm W 262 6,4 km/h (2 Bft)
08.12.2017 22:30 0,1 C 95 % 1014,6 hPa 0,0 mm W 265 6,4 km/h (2 Bft)
08.12.2017 22:35 0,1 C 95 % 1014,5 hPa 0,0 mm W 267 6,4 km/h (2 Bft)
08.12.2017 22:40 0,1 C 95 % 1014,4 hPa 0,0 mm W 269 6,4 km/h (2 Bft)
08.12.2017 22:45 0,1 C 95 % 1014,6 hPa 0,0 mm W 264 6,4 km/h (2 Bft)
08.12.2017 22:50 0,1 C 95 % 1014,7 hPa 0,0 mm W 267 6,4 km/h (2 Bft)
08.12.2017 22:55 0,1 C 95 % 1014,6 hPa 0,0 mm W 259 6,4 km/h (2 Bft)
08.12.2017 23:00 0,1 C 95 % 1014,6 hPa 0,0 mm W 274 8,0 km/h (2 Bft)
08.12.2017 23:05 0,1 C 95 % 1014,5 hPa 0,0 mm W 269 8,0 km/h (2 Bft)
08.12.2017 23:10 0,1 C 95 % 1014,3 hPa 0,0 mm W 261 8,0 km/h (2 Bft)
08.12.2017 23:15 0,1 C 95 % 1014,2 hPa 0,0 mm W 274 9,7 km/h (2 Bft)
08.12.2017 23:20 0,1 C 95 % 1014,2 hPa 0,0 mm W 269 8,0 km/h (2 Bft)
08.12.2017 23:25 0,1 C 95 % 1014,4 hPa 0,0 mm W-NW 282 8,0 km/h (2 Bft)
08.12.2017 23:30 0,1 C 95 % 1014,3 hPa 0,0 mm W 266 6,4 km/h (2 Bft)
08.12.2017 23:35 0,1 C 95 % 1014,2 hPa 0,0 mm W-SW 250 11,3 km/h (2 Bft)
08.12.2017 23:40 0,0 C 95 % 1014,3 hPa 0,0 mm W 263 8,0 km/h (2 Bft)
08.12.2017 23:45 0,0 C 95 % 1014,1 hPa 0,0 mm W 262 6,4 km/h (2 Bft)
08.12.2017 23:50 -0,1 C 95 % 1014,3 hPa 0,0 mm W 263 4,8 km/h (1 Bft)
08.12.2017 23:55 -0,2 C 95 % 1014,2 hPa 0,0 mm W 263 4,8 km/h (1 Bft)
_ Min-Zeit 02:55 11:40 13:15 - - - 06:00
Minimum _ -4,6 C 93 % 1012,1 hPa - - - 0,0 km/h (0 Bft)
_ Max-Zeit 13:45 03:40 00:00 12:10 - - 18:45
Maximum _ 2,6 C 96 % 1018,4 hPa 0,2 mm - - 27,4 km/h
W-SW (4 Bft)
Durchschnitt _ -0,3 C 95 % 1014,5 hPa #5,4 mm W - 5,7 km/h (1 Bft)